Date String (YYYY-MM-DD hh:mm:ss) UTC,Instrument flags,Ambient pressure (hPa),Sample flow (lpm),Bypass flow (lpm),Sample temperature (°C),Ambient temperature (°C),ASC tube jacket temperature (°C),LED temperature (°C),Box temperature (°C),Sample RH (%),Span deviation,Mass concentration (μg/m³),Mass concentration (μg/m³),Mass concentration (μg/m³)
DateTimeUTC,F1_M11,P_M11,Q1_M11,Q2_M11,T1_M11,T2_M11,T3_M11,T4_M11,T5_M11,U1_M11,ZSPAN_M11,X2_M11,X0_M11,X1_M11
2021-12-12 01:00:00,,0820.6,5.01,0.00,22.3,21.6,00.0,31.3,23.9,07.9,0000.0,0001.51,0004.67,0001.12
2021-12-12 01:01:00,,0820.6,4.99,0.00,22.3,21.6,00.0,31.3,23.9,07.9,0000.0,0001.50,0004.62,0001.12
2021-12-12 01:02:00,,0820.6,5.02,0.00,22.3,21.6,00.0,31.3,23.9,07.9,0000.0,0001.51,0004.74,0001.13
2021-12-12 01:03:00,,0820.6,4.98,0.00,22.3,21.5,00.0,31.3,23.9,07.9,0000.0,0001.55,0004.90,0001.13
2021-12-12 01:04:00,,0820.6,5.01,0.00,22.3,21.5,00.0,31.3,23.9,07.8,0000.0,0001.55,0004.92,0001.12
2021-12-12 01:05:00,,0820.6,4.99,0.00,22.3,21.5,00.0,31.3,24.0,07.8,0000.0,0001.54,0004.75,0001.12
2021-12-12 01:06:00,,0820.6,5.02,0.00,22.3,21.6,00.0,31.3,24.0,07.8,0000.0,0001.51,0004.15,0001.10
2021-12-12 01:07:00,,0820.6,5.01,0.00,22.3,21.6,00.0,31.3,24.0,07.9,0000.0,0001.51,0003.36,0001.10
2021-12-12 01:08:00,,0820.6,4.99,0.00,22.3,21.6,00.0,31.3,24.0,07.9,0000.0,0001.52,0002.88,0001.10
2021-12-12 01:09:00,,0820.6,5.00,0.00,22.3,21.6,00.0,31.3,24.0,07.9,0000.0,0001.48,0002.59,0001.09
2021-12-12 01:10:00,,0820.8,4.99,0.00,22.3,21.6,00.0,31.3,24.0,08.0,0000.0,0001.46,0002.48,0001.08
2021-12-12 01:11:00,,0820.9,5.01,0.00,22.3,21.6,00.0,31.3,23.9,08.0,0000.0,0001.48,0002.51,0001.09
2021-12-12 01:12:00,,0820.9,4.99,0.00,22.2,21.5,00.0,31.3,23.9,08.1,0000.0,0001.55,0002.88,0001.12
2021-12-12 01:13:00,,0820.8,5.00,0.00,22.2,21.4,00.0,31.3,23.8,08.1,0000.0,0001.58,0003.24,0001.15
2021-12-12 01:14:00,,0820.7,5.00,0.00,22.1,21.4,00.0,31.3,23.7,08.1,0000.0,0001.56,0003.18,0001.16
2021-12-12 01:15:00,,0820.5,5.00,0.00,22.1,21.3,00.0,31.2,23.7,08.1,0000.0,0001.59,0003.52,0001.18
2021-12-12 01:16:00,,0820.4,5.00,0.00,22.0,21.3,00.0,31.2,23.7,08.1,0000.0,0001.65,0003.67,0001.22
2021-12-12 01:17:00,,0820.5,5.01,0.00,22.0,21.3,00.0,31.2,23.7,08.0,0000.0,0001.80,0004.17,0001.27
2021-12-12 01:18:00,,0820.6,5.01,0.00,22.0,21.3,00.0,31.2,23.7,08.0,0000.0,0001.86,0004.30,0001.29
2021-12-12 01:19:00,,0820.6,5.00,0.00,22.1,21.3,00.0,31.2,23.7,08.1,0000.0,0001.88,0004.40,0001.31
2021-12-12 01:20:00,,0820.7,4.99,0.00,22.1,21.3,00.0,31.2,23.7,08.1,0000.0,0001.91,0004.45,0001.33
2021-12-12 01:21:00,,0820.8,5.00,0.00,22.1,21.3,00.0,31.2,23.7,08.2,0000.0,0001.99,0004.74,0001.36
2021-12-12 01:22:00,,0820.8,4.99,0.00,22.1,21.3,00.0,31.1,23.7,08.2,0000.0,0002.03,0004.86,0001.37
2021-12-12 01:23:00,,0820.8,5.01,0.00,22.1,21.3,00.0,31.1,23.7,08.2,0000.0,0002.04,0004.89,0001.36
2021-12-12 01:24:00,,0820.7,4.99,0.00,22.1,21.4,00.0,31.1,23.7,08.2,0000.0,0002.01,0004.24,0001.34
2021-12-12 01:25:00,,0820.8,4.99,0.00,22.1,21.4,00.0,31.1,23.8,08.2,0000.0,0001.97,0004.16,0001.33
2021-12-12 01:26:00,,0820.7,5.00,0.00,22.1,21.4,00.0,31.1,23.8,08.2,0000.0,0001.96,0003.78,0001.32
2021-12-12 01:27:00,,0820.9,5.01,0.00,22.1,21.4,00.0,31.1,23.8,08.2,0000.0,0001.91,0003.59,0001.31
2021-12-12 01:28:00,,0821.0,5.00,0.00,22.1,21.4,00.0,31.1,23.7,08.1,0000.0,0001.87,0003.31,0001.29
2021-12-12 01:29:00,,0821.0,4.98,0.00,22.0,21.3,00.0,31.1,23.7,08.1,0000.0,0001.85,0003.22,0001.29
2021-12-12 01:30:00,,0821.0,4.98,0.00,22.0,21.3,00.0,31.1,23.6,08.0,0000.0,0001.87,0003.20,0001.32
2021-12-12 01:31:00,,0821.0,5.00,0.00,22.0,21.2,00.0,31.1,23.6,08.0,0000.0,0001.93,0003.30,0001.36
2021-12-12 01:32:00,,0821.0,5.01,0.00,21.9,21.2,00.0,31.1,23.5,08.0,0000.0,0002.03,0003.49,0001.43
2021-12-12 01:33:00,,0821.0,5.00,0.00,21.9,21.2,00.0,31.1,23.6,08.0,0000.0,0002.08,0003.46,0001.49
2021-12-12 01:34:00,,0820.9,4.99,0.00,21.9,21.2,00.0,31.1,23.6,07.9,0000.0,0002.16,0004.02,0001.55
2021-12-12 01:35:00,,0820.9,5.01,0.00,21.9,21.2,00.0,31.0,23.6,07.9,0000.0,0002.22,0004.07,0001.60
2021-12-12 01:36:00,,0820.9,5.00,0.00,21.9,21.2,00.0,31.0,23.6,07.9,0000.0,0002.28,0004.18,0001.64
2021-12-12 01:37:00,,0820.9,4.99,0.00,21.9,21.1,00.0,31.0,23.5,07.9,0000.0,0002.34,0004.41,0001.68
2021-12-12 01:38:00,,0820.9,5.01,0.00,21.9,21.0,00.0,31.0,23.5,07.9,0000.0,0002.43,0004.64,0001.71
2021-12-12 01:39:00,,0820.9,5.00,0.00,21.9,21.1,00.0,31.0,23.5,07.9,0000.0,0002.43,0004.97,0001.74
2021-12-12 01:40:00,,0820.9,5.00,0.00,21.9,21.1,00.0,31.0,23.6,07.9,0000.0,0002.43,0005.16,0001.76
2021-12-12 01:41:00,,0820.9,5.00,0.00,21.9,21.2,00.0,31.0,23.6,07.9,0000.0,0002.41,0005.08,0001.77
2021-12-12 01:42:00,,0820.9,5.01,0.00,21.9,21.2,00.0,31.0,23.7,08.0,0000.0,0002.41,0005.08,0001.77
2021-12-12 01:43:00,,0820.9,5.01,0.00,21.9,21.2,00.0,31.0,23.7,07.9,0000.0,0002.37,0004.91,0001.75
2021-12-12 01:44:00,,0821.0,5.00,0.00,21.9,21.3,00.0,31.0,23.7,07.9,0000.0,0002.32,0004.83,0001.74
2021-12-12 01:45:00,,0820.9,5.00,0.00,22.0,21.3,00.0,31.0,23.7,07.9,0000.0,0002.26,0004.26,0001.72
2021-12-12 01:46:00,,0820.9,4.99,0.00,22.0,21.3,00.0,31.0,23.8,07.9,0000.0,0002.23,0004.15,0001.71
2021-12-12 01:47:00,,0820.9,5.00,0.00,22.0,21.3,00.0,31.0,23.7,07.8,0000.0,0002.21,0004.07,0001.70
2021-12-12 01:48:00,,0820.9,5.00,0.00,21.9,21.3,00.0,31.0,23.6,07.8,0000.0,0002.16,0003.83,0001.69
2021-12-12 01:49:00,,0821.0,5.01,0.00,21.9,21.3,00.0,31.0,23.6,07.8,0000.0,0002.11,0003.60,0001.69
2021-12-12 01:50:00,,0821.0,4.99,0.00,21.9,21.3,00.0,31.0,23.6,07.8,0000.0,0002.11,0003.28,0001.69
2021-12-12 01:51:00,,0821.2,4.99,0.00,21.9,21.3,00.0,30.9,23.6,07.8,0000.0,0002.10,0003.77,0001.67
2021-12-12 01:52:00,,0821.2,5.00,0.00,22.0,21.9,00.0,31.0,23.8,07.8,0000.0,0002.13,0003.82,0001.67
2021-12-12 01:53:00,,0821.2,4.99,0.00,22.1,22.7,00.0,31.0,24.1,07.7,0000.0,0002.15,0004.85,0001.67
2021-12-12 01:54:00,,0821.1,5.00,0.00,22.3,23.1,00.0,31.1,24.3,07.7,0000.0,0002.14,0004.83,0001.65
2021-12-12 01:55:00,,0821.0,5.00,0.00,22.3,22.9,00.0,31.1,24.3,07.7,0000.0,0002.17,0004.93,0001.65
2021-12-12 01:56:00,,0820.9,5.00,0.00,22.4,22.7,00.0,31.1,24.3,07.7,0000.0,0002.17,0004.93,0001.65
2021-12-12 01:57:00,,0820.9,5.01,0.00,22.4,22.6,00.0,31.2,24.3,07.7,0000.0,0002.14,0004.98,0001.66
2021-12-12 01:58:00,,0820.9,5.00,0.00,22.4,22.4,00.0,31.2,24.3,07.6,0000.0,0002.17,0005.11,0001.67
2021-12-12 01:59:00,,0820.9,5.00,0.00,22.4,22.3,00.0,31.2,24.3,07.6,0000.0,0002.21,0005.19,0001.69
